[Iaude] MPEC A41: 2024 AS [a=2.00,e=0.49,i=8.7,H=25.2]

mpec at marsden.cfa.harvard.edu mpec at marsden.cfa.harvard.edu
Thu Jan 4 17:11:06 EST 2024


M.P.E.C. 2024-A41                               Issued 2024 January 4, 22:08 UT

     The Minor Planet Electronic Circulars contain information on unusual
         minor planets, routine data on comets and natural satellites,
         and occasional editorial announcements.  They are published
    on behalf of Division F of the International Astronomical Union by the
          Minor Planet Center, Smithsonian Astrophysical Observatory,
                          Cambridge, MA 02138, U.S.A.
			  
             Prepared using the Tamkin Foundation Computer Network

                              MPC at CFA.HARVARD.EDU
            URL https://www.minorplanetcenter.net/    ISSN 1523-6714

                                    2024 AS                                     


Observations:
     K24A00S  C2024 01 01.45594407 48 46.331+57 31 58.12         20.16GVEA041F51
     K24A00S  C2024 01 01.46240807 48 50.725+57 30 39.39         20.12GVEA041F51
     K24A00S  C2024 01 01.50741207 49 21.118+57 21 23.65         20.35GVEA041F52
     K24A00S  C2024 01 01.51646607 49 27.255+57 19 30.45         20.51GVEA041F52
     K24A00S  C2024 01 02.45326108 00 42.457+54 02 39.46         20.58GVEA041F51
     K24A00S  C2024 01 02.46618708 00 49.738+53 59 54.92         19.95GVEA041F51
     K24A00S  C2024 01 02.47910908 00 57.020+53 57 09.86         19.92GVEA041F51
     K24A00S  C2024 01 02.49204008 01 04.241+53 54 24.16         21.15GVEA041F51
     K24A00S* C2024 01 03.43968108 10 41.887+50 28 46.35         20.09wXEA041F52
     K24A00S  C2024 01 03.46692408 10 54.756+50 22 52.24         20.43wXEA041F52
     K24A00S  C2024 01 03.48055008 11 01.151+50 19 53.71         20.60wXEA041F52
     K24A00S  C2024 01 03.54405108 11 30.785+50 05 52.23         20.56GVEA041F51
     K24A00S  C2024 01 03.54470308 11 31.087+50 05 43.59         20.08GVEA041F51
     K24A00S KB2024 01 04.18997 08 17 19.97 +47 42 25.4          20.4 GXEA041H36
     K24A00S KB2024 01 04.19489 08 17 22.16 +47 41 21.8          20.3 GXEA041H36
     K24A00S KB2024 01 04.19980 08 17 24.38 +47 40 18.7          20.2 GXEA041H36
     K24A00S bC2024 01 04.79331908 22 05.41 +45 28 02.7          20.2 GVEA041L01
     K24A00S bC2024 01 04.79542508 22 06.36 +45 27 34.9          20.3 GVEA041L01
     K24A00S bC2024 01 04.79777808 22 07.48 +45 27 05.9          20.6 GVEA041L01

Observer details:
F51 Pan-STARRS 1, Haleakala.  Observers J. Herman, T. Lowe, P. Minguez, A.
    Schultz, I. Smith.  Measurers K. Chambers, T. de Boer, J. Fairlamb, H.
    Gao, M. Huber, C.-C. Lin, E. Magnier, Y. Ramanjooloo, R. Wainscoat, R.
    Weryk.  1.8-m Ritchey-Chretien + CCD.
F52 Pan-STARRS 2, Haleakala.  Observers J. Herman, T. Lowe, P. Minguez, A.
    Schultz, I. Smith.  Measurers K. Chambers, T. de Boer, J. Fairlamb, H.
    Gao, M. Huber, C.-C. Lin, E. Magnier, Y. Ramanjooloo, R. Wainscoat, R.
    Weryk.  1.8-m Ritchey-Chretien + CCD.
H36 Sandlot Observatory, Scranton.  Observer G. Hug.  0.56-m f/4.8 reflector +
    CMO.
L01 Visnjan Observatory, Tican.  Observers K. Korlevic, L. Poropat.  Measurer
    K. Korlevic.  1.0-m f/2.9 reflector + CCD.

Orbital elements:
2024 AS                                                  Earth MOID = 0.0603 AU
Epoch 2023 Sept. 13.0 TT = JDT 2460200.5                Veres                   
M 324.29430              (2000.0)            P               Q                  
n   0.34781408     Peri.  157.42965     -0.02945106     -0.99005827             
a   2.0024943      Node   294.02888     +0.89255843     +0.03589442             
e   0.4853704      Incl.    8.66113     +0.44996899     -0.13600077             
P   2.83           H   25.20          G   0.15           U   8                  
Residuals in seconds of arc
240101 F51  0.1+  0.4-    240102 F51  0.1-  0.4+    240104 H36  0.3+  0.4-
240101 F51  0.1+  0.1-    240103 F52  0.2+  0.0     240104 H36  0.7+  0.2-
240101 F52  0.3-  0.1+    240103 F52  0.2+  0.2+    240104 L01  0.8-  0.1+
240101 F52  0.0   0.0     240103 F52  0.2+  0.0     240104 L01  0.6-  0.7-
240102 F51  0.2+  0.0     240103 F51  0.1+  0.0     240104 L01  0.3+  0.5+
240102 F51  0.0   0.1-    240103 F51  0.1+  0.0
240102 F51  0.2+  0.0     240104 H36  0.5+  0.2-

Ephemeris:
2024 AS                  a,e,i = 2.00, 0.49, 9                   q = 1.0305
Date    TT    R. A. (2000) Decl.     Delta      r    Elong.  Phase     V
2023 12 05    23 50 29.2 +61 28 27   0.1377  1.0561   117.5    55.9    23.0
...
2023 12 20    01 54 06.5 +73 38 57   0.08800 1.0320   121.0    54.8    22.0
...
2023 12 28    06 20 30.3 +70 15 21   0.06836 1.0313   133.1    44.2    21.1
...
2024 01 03    08 06 22.5 +52 03 45   0.06234 1.0364   147.5    30.7    20.6
2024 01 04    08 15 36.0 +48 24 38   0.06236 1.0377   149.9    28.4    20.5
2024 01 05    08 23 27.2 +44 43 31   0.06270 1.0392   152.1    26.2    20.5
...
2024 01 11    08 52 23.8 +24 16 22   0.07105 1.0505   160.1    18.6    20.5
...
2024 01 19    09 08 02.3 +06 07 43   0.09479 1.0725   158.2    19.9    21.2
...
2024 02 03    09 16 04.1 -07 47 46   0.1590  1.1318   155.2    21.5    22.5

M. P. C. Staff               (C) Copyright 2024 MPC           M.P.E.C. 2024-A41





More information about the Iaude mailing list